Location: ?????????
(41.2393°N, 22.9479°E)
Time: 21:51:10
(UTC+00:00)

MOS 1 Rocket - Pass Details

Date: 17 November 2025
Orbit: 610 x 813 km, 97.4° (Epoch: 11 December)

Event Time Altitude Azimuth Distance (km) Brightness Sun altitude
Rises 16:50:36 0° 180° (S) 2,860 6.6 -19.4°
Reaches altitude 10° 16:52:48 10° 185° (S) 1,969 5.8 -19.8°
Maximum altitude 16:56:56 50° 261° (W) 800 4.0 -20.5°
Drops below altitude 10° 17:01:16 10° 338° (NNW) 2,052 5.9 -21.3°
Sets 17:03:36 0° 343° (NNW) 2,996 6.7 -21.8°
